QPF
0.07 0.09 0.10 0.08 0.07 0.06 0.04 0.02 0.02 0.02 0.01 0.01 0.00 0.00 0.00 0.00 0.00 0.00 0.00 0.01 0.01 0.01 0.01 0.01 0.01 0.02 0.04 0.05 0.05 0.05 0.06 0.07 0.07 0.05 0.04 0.03 0.03 0.03 0.03 0.03 0.03 0.03 0.02 0.02
0.07 0.07 0.06 0.04 0.04 0.04 0.04 0.03 0.02 0.02 0.01 0.01 0.00 0.00 0.00 0.00 0.00 0.00 0.00 0.01 0.01 0.01 0.01 0.01 0.02 0.02 0.03 0.03 0.04 0.04 0.04 0.06 0.05 0.04 0.05 0.05 0.03 0.03 0.04 0.03 0.04 0.04 0.04 0.03
0.04 0.04 0.03 0.04 0.05 0.05 0.04 0.03 0.03 0.03 0.03 0.02 0.01 0.01 0.00 0.00 0.00 0.00 0.00 0.01 0.01 0.01 0.01 0.01 0.01 0.02 0.02 0.03 0.04 0.04 0.04 0.05 0.05 0.05 0.04 0.04 0.04 0.03 0.02 0.02 0.02 0.02 0.03 0.03
0.02 0.02 0.03 0.04 0.05 0.06 0.05 0.03 0.02 0.03 0.04 0.06 0.03 0.02 0.01 0.00 0.00 0.00 0.00 0.00 0.01 0.01 0.02 0.03 0.02 0.02 0.02 0.04 0.04 0.04 0.04 0.04 0.05 0.04 0.03 0.03 0.02 0.01 0.01 0.02 0.02 0.02 0.01 0.01
0.04 0.02 0.03 0.03 0.04 0.04 0.04 0.02 0.03 0.04 0.05 0.06 0.05 0.03 0.01 0.00 0.00 0.00 0.00 0.00 0.00 0.01 0.01 0.01 0.02 0.02 0.03 0.05 0.06 0.05 0.04 0.03 0.05 0.05 0.04 0.04 0.03 0.03 0.02 0.02 0.02 0.01 0.01 0.00
0.03 0.03 0.02 0.02 0.03 0.03 0.03 0.03 0.04 0.04 0.07 0.09 0.05 0.05 0.02 0.00 0.00 0.00 0.00 0.00 0.00 0.00 0.00 0.00 0.01 0.02 0.02 0.03 0.05 0.05 0.04 0.03 0.03 0.04 0.04 0.03 0.02 0.02 0.01 0.01 0.01 0.01 0.00 0.00
0.04 0.04 0.03 0.02 0.04 0.04 0.04 0.06 0.12 0.12 0.12 0.07 0.02 0.03 0.03 0.01 0.00 0.00 0.00 0.00 0.00 0.00 0.00 0.00 0.00 0.01 0.01 0.01 0.03 0.04 0.04 0.03 0.02 0.03 0.03 0.02 0.02 0.02 0.01 0.01 0.02 0.01 0.01 0.00
0.04 0.05 0.04 0.03 0.06 0.06 0.04 0.04 0.07 0.08 0.06 0.02 0.01 0.02 0.02 0.01 0.00 0.00 0.00 0.00 0.00 0.00 0.00 0.00 0.00 0.00 0.00 0.01 0.01 0.04 0.04 0.04 0.02 0.02 0.02 0.02 0.02 0.02 0.02 0.02 0.01 0.01 0.01 0.01
0.03 0.03 0.03 0.03 0.03 0.03 0.04 0.03 0.03 0.04 0.02 0.01 0.02 0.02 0.01 0.01 0.01 0.00 0.00 0.00 0.00 0.00 0.00 0.00 0.00 0.00 0.00 0.00 0.01 0.02 0.04 0.04 0.03 0.01 0.01 0.02 0.02 0.02 0.02 0.02 0.02 0.01 0.01 0.01
0.04 0.03 0.03 0.04 0.04 0.04 0.04 0.03 0.04 0.04 0.03 0.02 0.02 0.01 0.01 0.01 0.01 0.01 0.01 0.00 0.00 0.00 0.00 0.00 0.00 0.00 0.00 0.00 0.01 0.02 0.02 0.04 0.03 0.02 0.01 0.01 0.01 0.01 0.02 0.02 0.01 0.01 0.01 0.01
0.04 0.03 0.03 0.04 0.05 0.05 0.04 0.04 0.04 0.04 0.04 0.03 0.02 0.02 0.01 0.01 0.01 0.01 0.01 0.01 0.00 0.00 0.00 0.00 0.00 0.00 0.00 0.00 0.01 0.03 0.02 0.02 0.03 0.02 0.01 0.01 0.01 0.01 0.01 0.01 0.02 0.02 0.01 0.01
0.05 0.04 0.03 0.03 0.03 0.02 0.03 0.03 0.03 0.04 0.04 0.03 0.03 0.02 0.02 0.01 0.01 0.01 0.01 0.01 0.01 0.01 0.00 0.00 0.00 0.00 0.00 0.00 0.00 0.02 0.02 0.01 0.02 0.01 0.01 0.01 0.01 0.01 0.01 0.01 0.01 0.02 0.02 0.01
0.07 0.05 0.03 0.05 0.04 0.03 0.03 0.02 0.02 0.03 0.03 0.04 0.04 0.03 0.02 0.01 0.01 0.00 0.00 0.00 0.00 0.01 0.01 0.00 0.00 0.00 0.00 0.00 0.00 0.01 0.02 0.02 0.01 0.01 0.01 0.00 0.00 0.01 0.01 0.01 0.01 0.01 0.01 0.02
0.06 0.05 0.03 0.03 0.03 0.03 0.02 0.02 0.02 0.02 0.03 0.03 0.03 0.03 0.03 0.02 0.01 0.01 0.00 0.00 0.00 0.00 0.00 0.00 0.00 0.00 0.00 0.00 0.00 0.00 0.01 0.02 0.02 0.01 0.00 0.00 0.00 0.00 0.01 0.01 0.01 0.00 0.00 0.01
0.04 0.04 0.02 0.02 0.02 0.02 0.02 0.02 0.02 0.01 0.02 0.02 0.02 0.02 0.03 0.02 0.02 0.01 0.01 0.00 0.00 0.01 0.00 0.00 0.00 0.00 0.00 0.00 0.00 0.00 0.00 0.01 0.01 0.01 0.00 0.00 0.00 0.00 0.00 0.01 0.00 0.00 0.00 0.00
0.03 0.03 0.02 0.02 0.02 0.01 0.02 0.02 0.02 0.01 0.01 0.01 0.01 0.02 0.03 0.02 0.02 0.02 0.01 0.01 0.00 0.01 0.00 0.00 0.00 0.00 0.00 0.00 0.00 0.00 0.00 0.00 0.00 0.00 0.00 0.00 0.00 0.00 0.00 0.01 0.01 0.01 0.01 0.00
0.02 0.02 0.02 0.02 0.02 0.01 0.03 0.03 0.02 0.02 0.02 0.02 0.01 0.02 0.03 0.03 0.03 0.03 0.01 0.01 0.01 0.01 0.00 0.00 0.00 0.00 0.00 0.00 0.00 0.00 0.00 0.00 0.00 0.00 0.00 0.00 0.00 0.00 0.00 0.00 0.01 0.01 0.01 0.01
0.02 0.01 0.02 0.02 0.02 0.04 0.04 0.02 0.02 0.02 0.03 0.03 0.02 0.02 0.02 0.03 0.03 0.03 0.02 0.01 0.01 0.01 0.01 0.00 0.00 0.00 0.00 0.00 0.00 0.00 0.00 0.00 0.00 0.00 0.00 0.00 0.00 0.00 0.00 0.00 0.01 0.01 0.01 0.01
0.01 0.02 0.02 0.02 0.03 0.04 0.02 0.01 0.02 0.02 0.03 0.03 0.02 0.02 0.02 0.02 0.02 0.03 0.02 0.02 0.02 0.01 0.01 0.01 0.00 0.00 0.00 0.00 0.00 0.00 0.00 0.00 0.00 0.00 0.00 0.00 0.00 0.00 0.00 0.01 0.01 0.01 0.01 0.01
0.02 0.02 0.03 0.03 0.03 0.03 0.02 0.01 0.01 0.02 0.03 0.02 0.02 0.01 0.01 0.02 0.02 0.03 0.02 0.01 0.02 0.01 0.01 0.01 0.00 0.00 0.00 0.00 0.00 0.00 0.00 0.00 0.00 0.00 0.01 0.01 0.01 0.01 0.00 0.01 0.01 0.01 0.01 0.02
0.03 0.03 0.03 0.03 0.02 0.02 0.02 0.01 0.01 0.03 0.03 0.02 0.02 0.01 0.02 0.02 0.02 0.03 0.02 0.02 0.02 0.02 0.01 0.01 0.00 0.00 0.00 0.00 0.00 0.00 0.00 0.00 0.00 0.00 0.00 0.00 0.01 0.01 0.01 0.01 0.01 0.01 0.01 0.01
0.02 0.02 0.02 0.02 0.02 0.02 0.01 0.02 0.02 0.03 0.02 0.02 0.02 0.01 0.01 0.02 0.02 0.03 0.02 0.02 0.02 0.02 0.02 0.01 0.01 0.00 0.00 0.00 0.00 0.00 0.00 0.00 0.00 0.00 0.00 0.00 0.00 0.00 0.00 0.01 0.01 0.01 0.01 0.01
0.02 0.02 0.02 0.02 0.02 0.02 0.02 0.02 0.02 0.02 0.01 0.01 0.02 0.01 0.01 0.02 0.02 0.02 0.02 0.02 0.02 0.03 0.02 0.02 0.02 0.01 0.01 0.00 0.00 0.00 0.00 0.00 0.00 0.00 0.00 0.00 0.00 0.00 0.00 0.00 0.01 0.01 0.01 0.01
0.01 0.01 0.01 0.02 0.02 0.02 0.02 0.02 0.02 0.01 0.01 0.01 0.01 0.01 0.01 0.02 0.02 0.02 0.02 0.02 0.02 0.03 0.03 0.02 0.02 0.02 0.01 0.01 0.01 0.00 0.00 0.00 0.00 0.00 0.00 0.00 0.00 0.00 0.00 0.00 0.01 0.01 0.01 0.01
0.01 0.01 0.01 0.02 0.01 0.01 0.01 0.01 0.02 0.02 0.02 0.01 0.01 0.01 0.01 0.01 0.02 0.02 0.02 0.02 0.02 0.03 0.03 0.02 0.02 0.02 0.02 0.01 0.01 0.01 0.01 0.01 0.01 0.01 0.00 0.00 0.00 0.00 0.00 0.01 0.01 0.01 0.01 0.02
0.01 0.01 0.01 0.01 0.01 0.01 0.01 0.02 0.02 0.02 0.02 0.02 0.02 0.02 0.02 0.02 0.02 0.02 0.02 0.03 0.03 0.03 0.03 0.03 0.02 0.02 0.02 0.01 0.01 0.01 0.01 0.01 0.01 0.01 0.01 0.00 0.00 0.00 0.01 0.01 0.01 0.02 0.02 0.02
MSLP
1014.12 1014.37 1014.55 1014.60 1014.46 1014.11 1013.54 1012.76 1011.82 1010.78 1009.73 1008.74 1007.88 1007.19 1006.70 1006.42 1006.30 1006.31 1006.40 1006.51 1006.60 1006.66 1006.69 1006.72 1006.77 1006.90 1007.14 1007.51 1008.03 1008.69 1009.46 1010.30 1011.16 1012.00 1012.79 1013.51 1014.16 1014.73 1015.25 1015.75 1016.23 1016.71 1017.20 1017.70
1013.57 1013.84 1014.08 1014.22 1014.21 1013.99 1013.54 1012.85 1011.95 1010.90 1009.77 1008.64 1007.59 1006.71 1006.04 1005.61 1005.40 1005.38 1005.49 1005.67 1005.88 1006.07 1006.22 1006.34 1006.46 1006.62 1006.87 1007.23 1007.73 1008.37 1009.13 1009.98 1010.87 1011.75 1012.58 1013.35 1014.03 1014.64 1015.18 1015.69 1016.19 1016.68 1017.18 1017.69
1012.92 1013.16 1013.42 1013.64 1013.74 1013.65 1013.34 1012.76 1011.93 1010.88 1009.69 1008.43 1007.21 1006.13 1005.26 1004.65 1004.32 1004.24 1004.36 1004.61 1004.93 1005.27 1005.57 1005.82 1006.05 1006.29 1006.58 1006.95 1007.45 1008.07 1008.83 1009.67 1010.56 1011.47 1012.33 1013.13 1013.85 1014.49 1015.07 1015.60 1016.11 1016.62 1017.13 1017.65
1012.28 1012.44 1012.67 1012.91 1013.08 1013.10 1012.91 1012.45 1011.70 1010.69 1009.47 1008.12 1006.77 1005.51 1004.45 1003.68 1003.22 1003.07 1003.18 1003.49 1003.92 1004.38 1004.84 1005.24 1005.60 1005.94 1006.29 1006.70 1007.20 1007.81 1008.55 1009.38 1010.26 1011.17 1012.04 1012.87 1013.62 1014.29 1014.90 1015.46 1016.00 1016.52 1017.05 1017.57
1011.78 1011.78 1011.90 1012.08 1012.26 1012.34 1012.25 1011.90 1011.25 1010.31 1009.11 1007.74 1006.31 1004.95 1003.76 1002.86 1002.30 1002.08 1002.17 1002.51 1003.01 1003.59 1004.18 1004.71 1005.19 1005.62 1006.03 1006.47 1006.98 1007.58 1008.29 1009.09 1009.95 1010.84 1011.72 1012.55 1013.33 1014.03 1014.67 1015.27 1015.83 1016.38 1016.92 1017.44
1011.55 1011.30 1011.22 1011.26 1011.36 1011.43 1011.38 1011.11 1010.57 1009.73 1008.62 1007.31 1005.90 1004.52 1003.29 1002.33 1001.71 1001.45 1001.53 1001.88 1002.42 1003.06 1003.73 1004.35 1004.90 1005.39 1005.84 1006.29 1006.79 1007.37 1008.04 1008.80 1009.62 1010.49 1011.35 1012.19 1012.98 1013.71 1014.39 1015.02 1015.62 1016.20 1016.76 1017.30
1011.62 1011.06 1010.70 1010.51 1010.44 1010.42 1010.35 1010.14 1009.70 1008.99 1008.02 1006.85 1005.56 1004.27 1003.11 1002.19 1001.58 1001.32 1001.39 1001.73 1002.28 1002.93 1003.60 1004.24 1004.80 1005.30 1005.74 1006.17 1006.63 1007.16 1007.78 1008.49 1009.27 1010.10 1010.95 1011.78 1012.58 1013.34 1014.06 1014.73 1015.37 1015.99 1016.58 1017.14
1012.02 1011.11 1010.41 1009.91 1009.60 1009.41 1009.26 1009.05 1008.68 1008.12 1007.34 1006.38 1005.30 1004.21 1003.22 1002.44 1001.92 1001.71 1001.80 1002.13 1002.64 1003.24 1003.86 1004.44 1004.94 1005.37 1005.75 1006.12 1006.51 1006.97 1007.53 1008.18 1008.91 1009.70 1010.52 1011.35 1012.16 1012.94 1013.69 1014.41 1015.10 1015.76 1016.39 1016.99
1012.67 1011.42 1010.36 1009.53 1008.93 1008.51 1008.21 1007.94 1007.62 1007.18 1006.60 1005.90 1005.10 1004.30 1003.57 1003.01 1002.66 1002.55 1002.69 1003.01 1003.46 1003.98 1004.49 1004.94 1005.32 1005.63 1005.90 1006.16 1006.46 1006.83 1007.30 1007.88 1008.56 1009.31 1010.10 1010.92 1011.73 1012.54 1013.32 1014.07 1014.80 1015.51 1016.18 1016.82
1013.49 1011.94 1010.56 1009.40 1008.48 1007.80 1007.30 1006.93 1006.60 1006.26 1005.87 1005.42 1004.93 1004.46 1004.05 1003.76 1003.64 1003.69 1003.90 1004.23 1004.63 1005.04 1005.41 1005.70 1005.92 1006.07 1006.18 1006.31 1006.50 1006.77 1007.16 1007.67 1008.28 1008.98 1009.74 1010.53 1011.34 1012.15 1012.95 1013.73 1014.50 1015.25 1015.96 1016.63
1014.34 1012.60 1010.97 1009.53 1008.33 1007.38 1006.66 1006.14 1005.75 1005.45 1005.19 1004.96 1004.76 1004.61 1004.53 1004.55 1004.68 1004.92 1005.24 1005.61 1005.97 1006.27 1006.50 1006.63 1006.68 1006.66 1006.62 1006.62 1006.68 1006.86 1007.16 1007.59 1008.14 1008.78 1009.49 1010.25 1011.03 1011.83 1012.62 1013.42 1014.20 1014.97 1015.71 1016.41
1015.12 1013.30 1011.54 1009.91 1008.48 1007.30 1006.36 1005.67 1005.17 1004.84 1004.65 1004.56 1004.59 1004.70 1004.92 1005.23 1005.62 1006.05 1006.51 1006.93 1007.28 1007.52 1007.64 1007.64 1007.54 1007.38 1007.21 1007.09 1007.05 1007.13 1007.35 1007.71 1008.19 1008.76 1009.41 1010.11 1010.85 1011.60 1012.37 1013.15 1013.93 1014.70 1015.45 1016.17
1015.76 1013.99 1012.21 1010.50 1008.94 1007.58 1006.46 1005.58 1004.94 1004.52 1004.31 1004.29 1004.44 1004.75 1005.19 1005.74 1006.35 1006.97 1007.56 1008.07 1008.44 1008.67 1008.73 1008.64 1008.45 1008.19 1007.93 1007.73 1007.62 1007.63 1007.78 1008.07 1008.47 1008.97 1009.54 1010.16 1010.82 1011.51 1012.22 1012.96 1013.71 1014.47 1015.21 1015.93
1016.25 1014.63 1012.95 1011.27 1009.68 1008.22 1006.95 1005.91 1005.11 1004.56 1004.26 1004.22 1004.41 1004.80 1005.38 1006.09 1006.86 1007.65 1008.36 1008.96 1009.40 1009.64 1009.70 1009.59 1009.36 1009.07 1008.78 1008.54 1008.38 1008.35 1008.45 1008.67 1009.00 1009.41 1009.89 1010.42 1010.98 1011.59 1012.23 1012.90 1013.60 1014.32 1015.05 1015.75
1016.62 1015.23 1013.73 1012.18 1010.64 1009.17 1007.82 1006.65 1005.70 1005.00 1004.57 1004.43 1004.57 1004.97 1005.59 1006.37 1007.25 1008.13 1008.95 1009.64 1010.15 1010.46 1010.56 1010.48 1010.28 1010.00 1009.72 1009.49 1009.33 1009.28 1009.35 1009.51 1009.77 1010.09 1010.47 1010.89 1011.36 1011.86 1012.42 1013.02 1013.66 1014.34 1015.02 1015.70
1016.93 1015.80 1014.54 1013.18 1011.77 1010.36 1009.00 1007.75 1006.68 1005.83 1005.25 1004.98 1005.01 1005.34 1005.93 1006.71 1007.62 1008.56 1009.44 1010.20 1010.78 1011.16 1011.33 1011.32 1011.18 1010.97 1010.74 1010.55 1010.42 1010.37 1010.41 1010.54 1010.73 1010.97 1011.26 1011.58 1011.94 1012.35 1012.82 1013.35 1013.93 1014.56 1015.21 1015.86
1017.26 1016.38 1015.36 1014.22 1012.99 1011.69 1010.38 1009.12 1007.97 1007.02 1006.30 1005.89 1005.79 1006.01 1006.51 1007.24 1008.12 1009.05 1009.95 1010.75 1011.38 1011.83 1012.07 1012.15 1012.09 1011.96 1011.81 1011.67 1011.58 1011.56 1011.60 1011.70 1011.84 1012.02 1012.22 1012.46 1012.73 1013.06 1013.46 1013.92 1014.45 1015.03 1015.65 1016.27
1017.67 1016.99 1016.19 1015.26 1014.22 1013.07 1011.85 1010.63 1009.47 1008.45 1007.65 1007.12 1006.90 1007.00 1007.39 1008.03 1008.84 1009.72 1010.61 1011.40 1012.06 1012.54 1012.84 1012.99 1013.02 1012.97 1012.89 1012.82 1012.79 1012.80 1012.85 1012.93 1013.05 1013.18 1013.32 1013.50 1013.71 1013.98 1014.32 1014.73 1015.23 1015.77 1016.36 1016.95
1018.19 1017.63 1016.99 1016.25 1015.37 1014.37 1013.28 1012.14 1011.02 1010.01 1009.17 1008.57 1008.26 1008.26 1008.55 1009.09 1009.81 1010.62 1011.44 1012.20 1012.85 1013.34 1013.68 1013.87 1013.96 1013.98 1013.97 1013.97 1013.98 1014.03 1014.10 1014.19 1014.29 1014.40 1014.52 1014.66 1014.83 1015.07 1015.37 1015.76 1016.22 1016.75 1017.30 1017.87
1018.79 1018.30 1017.76 1017.14 1016.40 1015.54 1014.58 1013.54 1012.50 1011.53 1010.71 1010.10 1009.75 1009.68 1009.89 1010.34 1010.97 1011.70 1012.45 1013.15 1013.76 1014.24 1014.58 1014.80 1014.92 1014.99 1015.04 1015.08 1015.14 1015.22 1015.32 1015.43 1015.54 1015.65 1015.76 1015.89 1016.05 1016.27 1016.57 1016.94 1017.38 1017.88 1018.41 1018.94
1019.43 1018.96 1018.47 1017.92 1017.28 1016.52 1015.67 1014.75 1013.81 1012.91 1012.14 1011.56 1011.21 1011.12 1011.28 1011.67 1012.22 1012.87 1013.54 1014.18 1014.74 1015.18 1015.51 1015.74 1015.88 1015.98 1016.07 1016.15 1016.25 1016.37 1016.51 1016.64 1016.77 1016.89 1017.02 1017.15 1017.32 1017.54 1017.83 1018.19 1018.61 1019.09 1019.59 1020.08
1020.07 1019.59 1019.10 1018.59 1018.00 1017.32 1016.56 1015.73 1014.88 1014.08 1013.38 1012.85 1012.53 1012.44 1012.58 1012.93 1013.43 1014.01 1014.63 1015.21 1015.72 1016.13 1016.44 1016.66 1016.82 1016.94 1017.05 1017.17 1017.31 1017.47 1017.64 1017.80 1017.96 1018.11 1018.25 1018.40 1018.58 1018.80 1019.08 1019.43 1019.83 1020.28 1020.74 1021.19
1020.67 1020.17 1019.68 1019.18 1018.61 1017.98 1017.28 1016.52 1015.74 1015.01 1014.39 1013.91 1013.63 1013.56 1013.70 1014.03 1014.50 1015.04 1015.61 1016.15 1016.62 1017.01 1017.31 1017.54 1017.71 1017.85 1018.00 1018.15 1018.32 1018.51 1018.71 1018.91 1019.09 1019.27 1019.43 1019.60 1019.78 1020.00 1020.27 1020.59 1020.96 1021.36 1021.77 1022.17
1021.19 1020.71 1020.24 1019.74 1019.19 1018.58 1017.90 1017.18 1016.46 1015.78 1015.20 1014.76 1014.51 1014.46 1014.61 1014.93 1015.37 1015.90 1016.44 1016.96 1017.42 1017.81 1018.11 1018.35 1018.54 1018.72 1018.89 1019.07 1019.28 1019.50 1019.72 1019.95 1020.16 1020.35 1020.53 1020.70 1020.88 1021.09 1021.33 1021.61 1021.94 1022.28 1022.64 1022.98
1021.67 1021.25 1020.81 1020.34 1019.81 1019.21 1018.55 1017.84 1017.13 1016.47 1015.90 1015.48 1015.24 1015.19 1015.33 1015.65 1016.08 1016.59 1017.13 1017.64 1018.11 1018.51 1018.83 1019.10 1019.32 1019.53 1019.73 1019.94 1020.17 1020.41 1020.66 1020.90 1021.13 1021.33 1021.52 1021.69 1021.86 1022.04 1022.25 1022.49 1022.75 1023.04 1023.32 1023.60
1022.13 1021.81 1021.45 1021.03 1020.54 1019.96 1019.30 1018.60 1017.88 1017.21 1016.63 1016.20 1015.94 1015.87 1015.99 1016.28 1016.70 1017.19 1017.72 1018.24 1018.72 1019.14 1019.50 1019.79 1020.05 1020.28 1020.51 1020.75 1020.99 1021.25 1021.51 1021.76 1021.99 1022.19 1022.38 1022.54 1022.69 1022.85 1023.02 1023.21 1023.41 1023.63 1023.85 1024.05
Thickness
5503 5504 5509 5522 5531 5539 5544 5550 5554 5565 5578 5579 5581 5588 5597 5604 5607 5609 5614 5619 5624 5628 5633 5636 5640 5641 5643 5644 5645 5645 5645 5646 5646 5645 5643 5642 5641 5642 5643 5643 5644 5643 5643 5642
5490 5497 5511 5520 5526 5531 5536 5539 5543 5555 5567 5569 5569 5576 5586 5593 5599 5604 5607 5611 5615 5618 5621 5625 5628 5631 5633 5634 5635 5636 5636 5637 5638 5638 5637 5636 5635 5634 5634 5635 5635 5635 5635 5634
5485 5499 5509 5513 5516 5520 5526 5531 5536 5543 5552 5556 5556 5558 5570 5582 5590 5595 5599 5603 5607 5611 5614 5616 5618 5620 5623 5624 5626 5628 5627 5628 5628 5629 5627 5626 5624 5624 5624 5624 5625 5626 5626 5626
5480 5494 5502 5503 5508 5514 5516 5530 5535 5536 5533 5531 5542 5537 5557 5569 5576 5582 5586 5591 5596 5601 5605 5607 5609 5611 5612 5614 5616 5617 5618 5618 5618 5619 5618 5617 5616 5615 5615 5616 5616 5617 5617 5617
5475 5488 5493 5498 5506 5512 5516 5526 5527 5527 5521 5520 5528 5527 5545 5558 5564 5572 5577 5581 5586 5590 5594 5597 5600 5601 5602 5604 5605 5607 5608 5608 5608 5609 5609 5608 5607 5607 5606 5607 5607 5607 5608 5608
5473 5484 5488 5494 5504 5510 5512 5513 5512 5510 5507 5507 5521 5522 5534 5546 5561 5567 5569 5572 5576 5579 5583 5586 5589 5590 5591 5593 5594 5596 5597 5597 5598 5598 5599 5599 5598 5597 5597 5597 5597 5597 5597 5597
5462 5472 5480 5488 5490 5496 5498 5494 5488 5489 5490 5500 5517 5519 5528 5542 5553 5560 5563 5564 5566 5569 5571 5575 5577 5579 5581 5582 5584 5585 5587 5587 5588 5588 5589 5589 5589 5589 5589 5589 5588 5587 5587 5588
5447 5455 5470 5479 5484 5486 5488 5489 5485 5485 5486 5492 5507 5511 5521 5533 5541 5548 5552 5553 5555 5557 5560 5564 5567 5569 5570 5572 5573 5575 5577 5577 5578 5578 5579 5580 5580 5579 5579 5579 5579 5579 5579 5579
5441 5449 5465 5476 5482 5485 5481 5481 5486 5479 5475 5481 5490 5498 5511 5523 5527 5532 5536 5539 5541 5544 5549 5552 5554 5557 5559 5561 5563 5565 5567 5567 5568 5568 5569 5569 5569 5569 5570 5569 5569 5569 5569 5569
5438 5441 5454 5465 5476 5478 5480 5481 5475 5473 5473 5478 5483 5491 5501 5508 5512 5518 5521 5525 5529 5533 5536 5540 5543 5546 5548 5550 5552 5554 5556 5557 5557 5558 5559 5559 5559 5559 5560 5559 5559 5559 5560 5559
5433 5432 5441 5451 5458 5463 5468 5471 5470 5465 5469 5471 5476 5486 5497 5501 5505 5507 5510 5514 5517 5520 5523 5527 5531 5534 5536 5538 5539 5541 5543 5544 5545 5546 5548 5548 5548 5548 5549 5549 5549 5549 5549 5549
5426 5424 5426 5437 5450 5459 5463 5464 5463 5461 5456 5457 5463 5474 5488 5490 5495 5495 5498 5502 5505 5508 5511 5514 5518 5521 5522 5524 5526 5528 5530 5532 5534 5535 5536 5537 5537 5537 5537 5538 5538 5538 5538 5538
5423 5416 5417 5428 5436 5443 5449 5454 5455 5453 5447 5446 5455 5465 5477 5478 5481 5483 5485 5488 5491 5494 5497 5500 5503 5506 5509 5511 5513 5515 5518 5520 5521 5523 5524 5524 5524 5525 5526 5526 5527 5527 5527 5527
5417 5407 5414 5422 5430 5432 5436 5445 5448 5446 5439 5439 5449 5456 5463 5465 5468 5470 5473 5474 5476 5481 5485 5487 5489 5492 5495 5497 5499 5502 5504 5507 5509 5510 5511 5511 5512 5513 5514 5515 5515 5515 5516 5515
5403 5399 5406 5415 5425 5427 5432 5438 5443 5441 5441 5440 5446 5449 5455 5454 5456 5458 5460 5462 5465 5469 5472 5475 5476 5478 5481 5483 5486 5488 5491 5493 5495 5497 5498 5498 5499 5500 5501 5502 5502 5503 5503 5504
5390 5391 5399 5407 5420 5423 5424 5429 5434 5437 5437 5434 5435 5438 5443 5442 5442 5443 5446 5451 5454 5458 5461 5463 5464 5466 5468 5471 5473 5475 5477 5479 5481 5483 5484 5485 5486 5487 5488 5489 5489 5490 5490 5491
5380 5383 5389 5395 5406 5413 5408 5413 5420 5424 5426 5429 5430 5432 5431 5430 5432 5432 5435 5439 5442 5445 5448 5450 5452 5454 5455 5457 5460 5462 5464 5466 5467 5469 5470 5472 5473 5474 5474 5476 5476 5477 5477 5478
5375 5375 5373 5380 5390 5391 5400 5401 5408 5412 5413 5415 5420 5419 5421 5420 5421 5422 5424 5425 5428 5432 5435 5437 5439 5441 5443 5445 5446 5448 5451 5452 5454 5455 5456 5458 5459 5460 5461 5462 5463 5463 5464 5465
5375 5372 5365 5366 5368 5380 5391 5391 5390 5395 5398 5402 5405 5407 5407 5407 5409 5409 5413 5416 5417 5419 5421 5424 5427 5429 5430 5432 5433 5435 5436 5438 5440 5441 5443 5444 5446 5447 5448 5449 5449 5450 5451 5452
5367 5364 5359 5355 5363 5371 5380 5381 5383 5387 5387 5393 5395 5397 5397 5400 5398 5400 5403 5405 5406 5408 5410 5413 5414 5416 5417 5419 5420 5422 5423 5424 5426 5428 5430 5431 5433 5434 5434 5435 5436 5436 5437 5438
5349 5349 5349 5348 5348 5359 5365 5368 5379 5378 5381 5384 5387 5389 5389 5389 5393 5393 5393 5394 5395 5397 5398 5401 5402 5403 5404 5406 5408 5408 5410 5411 5413 5415 5416 5418 5419 5420 5421 5422 5422 5423 5424 5425
5336 5334 5333 5336 5341 5352 5357 5361 5364 5367 5371 5374 5377 5379 5379 5380 5382 5382 5383 5384 5385 5386 5387 5389 5390 5390 5391 5393 5395 5396 5396 5398 5400 5401 5403 5404 5406 5407 5408 5408 5409 5410 5411 5411
5330 5331 5330 5334 5343 5346 5348 5352 5357 5359 5361 5364 5366 5369 5369 5370 5371 5372 5373 5373 5374 5376 5377 5378 5378 5378 5379 5380 5382 5383 5384 5385 5387 5388 5389 5391 5392 5393 5394 5395 5396 5397 5397 5398
5325 5327 5328 5330 5337 5340 5343 5345 5350 5352 5354 5357 5358 5359 5360 5360 5361 5361 5363 5363 5364 5365 5365 5367 5367 5367 5367 5368 5369 5371 5372 5373 5374 5375 5376 5377 5378 5380 5381 5382 5384 5385 5386 5387
5320 5321 5321 5324 5331 5335 5340 5340 5343 5346 5347 5349 5350 5350 5350 5351 5351 5352 5352 5353 5354 5355 5355 5356 5356 5357 5356 5357 5358 5359 5360 5362 5362 5363 5363 5364 5366 5367 5368 5370 5371 5373 5375 5377
5318 5317 5317 5325 5328 5326 5330 5333 5336 5338 5339 5340 5340 5340 5340 5341 5342 5342 5342 5343 5344 5344 5345 5345 5345 5345 5345 5346 5347 5348 5349 5351 5351 5352 5352 5353 5354 5355 5357 5358 5360 5363 5365 5367